Wetbulb
56.24 55.93 55.71 55.68 55.42 55.10 54.79 54.32 53.94 53.87 53.72 53.11 53.25 53.06 52.45 52.18 52.27 52.05 52.14 52.05 51.72 52.26 52.73 53.56 52.29 47.98 38.17 30.31 29.63 38.37 47.60 43.10 38.58 37.72 34.43 32.96 29.99 28.13 26.34 26.47 27.97 25.71 25.61 28.65 28.74 28.07 27.24
56.04 55.72 55.51 55.35 55.19 54.86 54.46 54.20 53.98 53.48 53.23 53.00 53.15 52.48 51.93 51.67 51.38 51.46 51.71 51.94 51.95 52.27 53.25 53.17 52.58 45.68 34.97 27.62 35.69 36.67 36.51 36.71 36.09 35.67 34.17 33.00 30.45 30.19 28.03 26.46 25.40 25.58 25.75 26.16 27.67 26.21 26.02
55.71 55.59 55.43 55.17 55.03 54.63 54.28 53.98 53.51 53.18 52.89 52.75 52.42 52.30 52.02 51.75 51.49 51.28 51.50 52.00 51.93 52.13 53.01 52.50 50.61 38.73 33.78 30.51 35.65 36.39 36.43 34.87 35.69 35.07 33.46 33.90 32.76 30.48 26.53 25.15 26.62 26.28 24.57 24.12 24.34 25.10 23.88
55.25 55.19 55.00 55.01 54.92 54.74 54.13 53.95 53.39 52.67 52.58 52.52 52.00 51.12 50.90 51.05 51.06 50.95 51.15 51.86 52.66 53.72 53.08 52.42 45.74 35.79 29.75 37.85 35.84 36.36 35.94 35.17 36.40 36.69 35.36 34.68 33.96 29.88 27.44 25.63 24.84 21.36 21.17 19.52 21.98 24.40 24.14
54.89 54.73 54.53 54.56 54.64 54.66 54.52 54.03 53.82 53.37 52.53 52.27 51.78 51.10 51.21 51.62 51.56 51.98 52.13 52.75 52.69 50.72 49.63 47.29 37.21 34.17 29.47 39.74 34.97 35.23 34.71 33.33 34.20 35.10 34.96 36.78 31.71 25.97 26.21 21.23 19.71 17.99 11.39 15.67 19.18 23.35 22.47
54.39 54.25 54.04 54.04 54.06 54.19 54.33 54.02 53.70 53.25 53.08 51.83 51.78 51.25 51.19 51.46 51.72 51.36 51.63 50.27 49.61 44.41 40.94 40.05 37.58 35.36 33.25 31.60 34.52 35.97 34.97 34.80 32.32 32.37 32.75 29.35 25.59 22.32 19.33 20.47 13.48 15.58 11.22 14.50 14.36 20.68 20.12
53.94 53.78 53.65 53.64 53.70 53.66 53.91 53.81 53.48 52.99 52.60 52.25 51.42 51.43 51.41 51.12 51.65 49.75 42.55 38.46 37.27 35.68 33.60 29.94 29.56 29.78 32.06 35.13 36.35 35.59 34.32 32.57 32.19 28.43 23.37 25.21 22.44 16.68 15.52 17.16 18.68 16.65 11.37 10.64 14.48 20.86 17.59
53.28 53.21 53.04 53.17 53.21 53.29 53.17 53.47 53.35 53.00 52.44 51.53 51.40 51.30 51.25 51.22 50.46 46.84 38.22 33.98 32.47 34.40 29.85 33.27 32.84 32.44 33.81 33.66 30.64 33.68 34.59 28.87 27.62 23.19 23.53 23.83 18.20 19.80 22.33 22.15 19.88 17.45 12.24 10.12 17.44 20.61 18.19
52.17 52.25 52.35 52.43 52.56 52.70 52.70 52.75 53.05 52.93 52.45 51.93 50.57 50.67 50.72 50.22 46.93 39.75 35.95 34.79 38.44 36.31 31.80 31.73 33.06 31.75 32.06 33.38 28.18 29.57 30.82 26.98 24.10 22.90 20.87 19.92 19.98 24.42 23.89 20.38 19.13 17.51 13.19 10.58 11.40 17.76 16.88
51.80 51.37 51.26 51.39 51.66 51.89 52.09 52.20 52.33 52.43 51.92 51.48 50.65 50.67 49.52 49.14 42.14 35.42 34.01 37.75 38.19 37.33 30.99 33.11 32.03 32.46 33.36 31.97 28.10 32.74 30.98 27.84 24.59 20.91 21.27 20.08 22.97 23.47 20.89 20.46 18.81 14.21 19.93 18.34 15.69 9.59 5.63
51.50 51.14 50.88 50.86 50.95 51.13 51.31 51.74 51.95 51.85 51.80 51.23 50.74 50.37 47.84 45.68 36.47 33.89 35.62 37.75 37.34 39.23 25.12 33.41 31.41 35.89 33.26 29.76 28.89 29.67 30.36 28.77 22.11 22.04 21.28 20.21 20.55 20.31 20.65 21.57 20.74 19.55 19.92 16.32 16.16 3.38 1.59
51.90 51.35 50.99 50.73 50.81 51.02 50.97 51.07 51.33 51.22 51.15 50.88 50.83 49.85 45.32 39.40 35.87 35.76 37.83 37.36 38.46 33.84 23.39 30.27 29.90 28.47 28.71 27.71 27.86 28.90 26.96 27.12 25.62 23.31 22.59 19.93 22.59 20.85 20.34 22.87 22.20 22.14 15.58 16.07 11.79 6.74 1.78
51.75 51.49 51.53 51.32 51.10 51.22 51.21 51.06 51.03 51.04 50.52 50.74 50.15 48.26 41.78 38.81 33.85 37.19 37.64 36.79 33.99 28.14 31.70 29.80 26.80 27.20 25.72 24.38 25.99 24.34 21.51 14.77 15.20 20.57 15.11 20.26 20.23 20.70 22.85 18.70 21.23 15.74 9.79 8.56 10.53 7.03 9.34
52.05 51.66 51.50 51.72 51.78 51.77 51.58 51.38 51.11 50.92 50.19 51.17 48.25 43.59 40.90 38.42 36.45 37.57 37.04 35.40 28.60 28.73 26.24 26.60 26.21 26.76 25.02 23.79 22.77 22.95 20.76 16.42 16.21 13.13 10.89 11.54 19.92 18.09 21.39 13.54 8.71 12.04 4.45 7.88 6.04 6.74 7.06
52.73 52.00 51.51 51.70 52.08 52.22 52.06 51.78 51.37 50.71 50.89 50.47 44.77 36.78 35.74 35.94 37.76 37.01 36.25 29.37 27.14 26.00 25.60 25.53 27.24 25.43 25.47 24.63 21.89 21.50 14.79 13.65 13.20 10.61 15.47 9.37 18.04 19.91 21.81 19.56 14.91 13.68 7.85 10.90 -2.27 -4.06 -5.42
53.51 53.04 52.61 52.21 52.18 52.20 52.13 52.02 51.58 50.44 50.49 47.79 36.63 35.44 36.59 37.00 36.43 36.03 33.71 30.34 25.54 26.59 26.11 25.23 24.60 22.52 22.05 22.74 22.81 17.88 16.33 14.89 15.62 15.12 12.28 11.27 8.59 18.42 19.48 20.40 18.18 11.87 13.16 6.91 1.04 2.29 4.01
54.68 53.84 53.50 53.07 52.69 52.21 51.90 51.69 51.62 49.94 49.12 46.11 37.37 39.33 39.48 36.25 35.73 34.35 29.68 24.38 25.50 26.92 26.59 24.83 22.89 20.23 17.78 18.13 17.66 14.76 15.47 19.23 17.87 17.11 15.03 6.49 7.96 16.00 16.22 13.27 8.82 9.43 1.17 2.82 4.06 -0.23 -1.10
55.67 54.62 54.19 54.01 53.69 52.85 51.92 51.37 51.50 49.41 47.51 41.63 36.22 38.56 39.08 36.48 35.51 24.66 23.13 25.12 30.24 25.86 25.94 25.14 23.48 19.79 18.83 18.97 16.39 17.42 18.29 20.03 20.23 19.01 11.30 12.51 4.47 6.05 14.25 9.73 5.71 6.86 5.16 3.20 7.38 0.02 -8.45
56.02 55.60 55.22 54.61 53.91 53.04 52.19 51.14 51.10 49.26 46.39 35.80 34.93 34.72 40.98 38.85 32.18 27.92 23.94 26.40 26.90 25.81 25.94 25.04 24.20 23.95 20.84 20.17 19.13 19.36 20.37 22.98 22.29 20.08 13.45 12.26 7.78 9.17 16.06 11.15 11.45 5.15 -1.85 -2.23 0.92 0.91 -4.26
56.20 56.04 55.57 54.87 54.10 53.41 52.56 51.21 50.68 49.37 47.08 38.54 35.53 34.83 37.34 30.96 27.63 26.42 22.19 26.05 25.75 26.62 25.87 25.86 24.31 23.71 20.73 19.68 20.29 17.82 20.20 21.97 22.20 21.80 26.50 22.02 8.48 13.48 19.54 20.32 8.39 3.91 5.10 -0.30 6.20 -0.34 -2.77
56.33 56.18 55.80 55.27 54.75 54.08 53.07 51.78 50.78 49.54 46.26 38.43 32.45 29.27 28.59 29.53 31.00 25.29 25.01 24.71 26.21 26.40 24.30 24.77 22.79 23.23 19.34 16.40 18.88 17.94 19.92 18.87 20.85 24.56 21.61 15.90 7.91 10.92 13.79 15.39 11.85 14.15 9.71 2.61 5.12 8.13 8.26
56.50 56.45 56.18 55.72 55.20 54.62 53.63 52.42 51.28 49.61 44.57 34.53 31.14 31.13 23.97 21.62 25.43 25.22 26.88 25.27 27.63 25.93 23.04 23.26 22.68 24.60 21.35 18.55 24.49 21.38 21.24 19.33 19.75 18.31 18.38 15.03 10.56 8.61 4.92 14.92 8.41 9.08 12.40 12.44 9.14 12.20 7.28
56.72 56.46 56.34 56.09 55.61 54.95 54.02 52.88 51.70 49.59 41.70 32.36 30.50 32.64 32.67 27.90 23.99 23.94 27.34 29.41 26.97 26.42 26.96 26.92 24.79 21.56 20.83 23.55 23.38 21.85 22.46 21.09 19.96 18.04 16.67 12.29 9.47 8.05 7.79 11.82 12.70 13.02 10.11 11.33 6.48 6.70 13.23
56.41 56.58 56.61 56.44 55.82 55.16 54.33 53.39 52.32 50.87 41.27 35.42 32.33 32.39 30.62 25.99 24.81 27.72 29.96 29.08 28.80 26.97 25.95 24.48 24.53 23.11 23.98 23.77 21.93 19.76 18.93 19.81 17.38 17.15 19.83 12.34 9.80 10.32 7.23 12.06 12.73 26.44 6.91 10.27 11.23 12.10 11.68
53.12 53.59 53.99 55.59 56.03 55.50 54.74 53.94 52.98 51.98 45.32 38.18 35.60 36.05 33.10 25.66 27.32 29.38 30.03 28.96 24.47 24.73 25.53 25.09 23.64 23.07 24.03 21.58 18.26 18.81 18.16 15.74 15.42 15.84 14.54 16.28 13.57 7.64 7.95 6.17 20.16 21.52 11.74 8.24 9.73 16.56 19.87
51.45 51.88 52.09 52.41 52.71 54.70 54.73 54.25 53.56 52.50 47.88 38.58 37.60 38.50 35.93 32.68 31.15 32.24 27.86 25.50 24.48 17.95 21.01 23.19 23.47 24.10 23.12 22.37 19.18 15.46 19.61 19.97 15.10 11.28 14.63 16.67 14.58 10.37 11.01 12.65 15.83 23.92 15.35 13.61 11.48 12.44 16.91
49.34 50.11 50.72 51.47 51.91 52.19 53.82 54.20 53.77 52.73 48.80 40.18 37.37 39.85 36.52 32.62 33.41 32.21 31.80 31.95 25.53 24.20 27.74 21.94 23.21 20.05 22.49 19.51 17.80 15.79 17.98 16.92 14.76 12.73 5.53 7.32 7.27 8.43 10.30 11.87 15.01 23.47 18.31 15.91 16.74 29.26 13.88
47.09 47.96 49.19 49.96 50.58 51.33 51.81 53.28 53.81 53.00 50.30 43.63 39.74 39.66 37.08 33.00 32.83 32.75 34.48 30.11 27.61 28.24 31.62 23.96 25.59 20.18 18.90 15.52 16.42 16.68 11.12 14.65 9.82 14.48 10.15 12.20 9.35 7.21 10.83 10.63 12.66 19.67 16.38 23.60 34.43 18.85 20.96
46.72 46.48 46.62 47.81 49.38 50.27 51.33 51.47 53.00 53.28 51.24 46.78 40.61 39.19 39.49 34.89 34.65 32.25 33.95 33.47 35.26 34.94 32.02 23.80 30.05 24.52 27.59 22.29 17.13 14.48 16.98 8.08 11.57 21.66 12.88 17.06 23.22 22.80 19.66 17.63 28.61 19.19 31.19 30.67 23.21 22.54 20.32
MSLP
1025.49 1025.50 1025.47 1025.38 1025.27 1025.16 1025.05 1024.93 1024.74 1024.51 1024.31 1024.12 1023.92 1023.71 1023.58 1023.43 1023.25 1023.01 1022.83 1022.60 1022.28 1021.93 1021.58 1021.22 1020.85 1020.62 1020.69 1022.43 1024.13 1023.35 1022.81 1022.22 1021.31 1020.84 1020.97 1021.19 1021.68 1022.55 1023.84 1024.66 1024.94 1025.52 1026.04 1025.97 1026.19 1026.40 1026.39
1025.79 1025.78 1025.77 1025.68 1025.59 1025.45 1025.30 1025.16 1025.01 1024.80 1024.56 1024.33 1024.13 1023.89 1023.70 1023.52 1023.30 1023.10 1022.91 1022.67 1022.40 1022.08 1021.74 1021.35 1020.95 1020.87 1021.22 1023.73 1024.26 1023.85 1023.52 1022.75 1022.44 1022.12 1022.44 1022.02 1023.01 1023.20 1024.26 1025.26 1025.69 1026.27 1026.16 1026.49 1026.62 1026.78 1026.82
1026.07 1026.05 1025.98 1025.93 1025.82 1025.69 1025.57 1025.44 1025.26 1024.98 1024.74 1024.55 1024.36 1024.16 1023.91 1023.67 1023.42 1023.19 1022.94 1022.71 1022.47 1022.17 1021.84 1021.52 1021.32 1021.46 1022.66 1024.68 1024.31 1024.10 1023.77 1023.43 1023.24 1022.94 1023.05 1023.25 1023.17 1023.39 1024.93 1026.05 1026.76 1026.66 1026.87 1026.99 1027.39 1027.50 1027.40
1026.45 1026.35 1026.27 1026.19 1026.08 1025.99 1025.84 1025.69 1025.47 1025.23 1024.99 1024.75 1024.52 1024.33 1024.08 1023.84 1023.54 1023.28 1023.01 1022.75 1022.49 1022.19 1021.83 1021.59 1021.58 1021.85 1023.88 1024.28 1024.26 1024.33 1024.00 1023.51 1023.44 1023.15 1023.37 1023.61 1023.56 1024.61 1026.00 1027.02 1027.49 1028.14 1028.40 1028.70 1028.12 1028.07 1028.25
1026.74 1026.60 1026.53 1026.45 1026.39 1026.26 1026.06 1025.89 1025.70 1025.47 1025.21 1024.97 1024.75 1024.52 1024.27 1023.95 1023.64 1023.34 1023.03 1022.71 1022.44 1022.14 1021.96 1021.74 1021.91 1022.21 1024.45 1024.35 1024.62 1024.86 1024.78 1024.63 1024.02 1023.65 1023.79 1023.69 1024.27 1026.40 1027.14 1028.28 1029.05 1030.20 1030.60 1030.81 1029.57 1029.25 1029.29
1027.00 1026.91 1026.87 1026.80 1026.74 1026.51 1026.32 1026.15 1025.97 1025.72 1025.49 1025.24 1024.98 1024.70 1024.36 1023.99 1023.66 1023.25 1022.86 1022.69 1022.46 1022.19 1022.38 1022.13 1022.70 1023.71 1025.08 1026.03 1025.61 1025.35 1024.99 1024.74 1024.55 1024.15 1024.24 1024.90 1026.22 1027.99 1029.76 1029.92 1031.74 1032.17 1032.50 1031.92 1031.29 1029.96 1029.61
1027.34 1027.24 1027.18 1027.11 1026.99 1026.82 1026.63 1026.47 1026.23 1025.98 1025.70 1025.40 1025.12 1024.80 1024.44 1024.11 1023.69 1023.19 1022.87 1022.88 1023.40 1023.82 1024.53 1025.81 1026.29 1026.36 1026.53 1026.34 1025.85 1025.73 1025.46 1025.23 1025.05 1025.61 1026.85 1027.06 1028.20 1030.56 1031.46 1031.58 1031.92 1032.58 1033.05 1033.01 1031.46 1030.74 1030.33
1027.67 1027.49 1027.45 1027.40 1027.25 1027.09 1026.94 1026.71 1026.43 1026.18 1025.87 1025.55 1025.21 1024.83 1024.42 1024.13 1023.87 1023.41 1023.59 1024.89 1025.83 1026.17 1026.72 1026.59 1026.54 1026.62 1026.82 1027.07 1026.75 1026.51 1025.82 1026.36 1026.87 1028.01 1028.07 1028.28 1030.19 1031.11 1031.27 1031.56 1032.00 1032.47 1033.00 1032.96 1031.26 1031.04 1031.36
1027.91 1027.80 1027.74 1027.69 1027.57 1027.40 1027.21 1026.94 1026.64 1026.35 1026.02 1025.69 1025.33 1024.92 1024.43 1024.06 1023.88 1024.17 1025.15 1026.00 1026.14 1026.05 1026.18 1026.84 1026.80 1026.93 1027.17 1027.25 1027.94 1027.98 1027.59 1028.10 1028.67 1029.13 1029.71 1029.87 1030.92 1030.95 1031.08 1031.62 1032.03 1032.24 1032.72 1033.12 1033.51 1032.02 1031.66
1028.15 1028.07 1028.00 1027.96 1027.84 1027.67 1027.45 1027.20 1026.86 1026.49 1026.17 1025.87 1025.49 1025.03 1024.53 1023.98 1024.35 1025.41 1026.02 1026.19 1026.16 1026.07 1026.40 1027.32 1026.86 1027.14 1027.20 1027.35 1028.46 1028.70 1028.82 1029.20 1029.51 1030.28 1030.55 1030.88 1030.91 1030.95 1031.03 1031.72 1032.60 1032.33 1032.46 1033.17 1033.33 1033.70 1033.92
1028.39 1028.30 1028.24 1028.15 1028.05 1027.89 1027.66 1027.36 1026.97 1026.65 1026.34 1025.97 1025.60 1025.20 1024.86 1024.03 1025.32 1025.95 1026.44 1026.29 1026.10 1026.03 1027.03 1027.61 1027.21 1026.98 1027.30 1028.13 1029.26 1029.21 1029.49 1029.09 1030.36 1030.92 1031.04 1031.33 1031.28 1031.21 1031.39 1031.74 1032.45 1032.26 1032.59 1033.15 1033.85 1034.90 1035.61
1028.51 1028.44 1028.43 1028.34 1028.26 1028.10 1027.92 1027.62 1027.27 1026.91 1026.53 1026.15 1025.80 1025.39 1025.06 1025.26 1025.81 1026.42 1026.39 1026.22 1026.16 1026.37 1026.97 1027.58 1027.63 1027.92 1027.95 1028.88 1029.62 1029.70 1029.93 1030.33 1031.13 1031.30 1031.48 1031.80 1031.71 1031.92 1031.99 1032.05 1032.46 1032.50 1032.81 1033.35 1034.30 1035.14 1035.84
1028.57 1028.52 1028.54 1028.51 1028.41 1028.26 1028.03 1027.72 1027.40 1027.03 1026.66 1026.29 1025.87 1025.64 1025.40 1025.94 1026.68 1026.49 1026.45 1026.35 1026.77 1027.38 1027.55 1028.40 1028.59 1028.90 1029.49 1030.15 1030.50 1031.19 1032.09 1033.12 1034.27 1033.68 1033.69 1032.64 1032.42 1032.54 1032.73 1032.73 1032.73 1033.26 1033.99 1034.69 1035.19 1035.53 1035.37
1028.60 1028.59 1028.60 1028.55 1028.46 1028.32 1028.14 1027.84 1027.49 1027.09 1026.70 1026.28 1025.93 1025.89 1026.34 1026.52 1026.66 1026.58 1026.61 1026.58 1027.45 1028.55 1028.69 1029.21 1029.21 1029.34 1030.00 1030.87 1031.64 1032.37 1033.53 1035.37 1036.09 1036.16 1036.14 1035.83 1033.23 1033.34 1033.86 1034.74 1035.32 1035.96 1036.63 1037.56 1038.46 1038.32 1036.30
1028.53 1028.55 1028.58 1028.58 1028.53 1028.44 1028.27 1027.96 1027.60 1027.18 1026.70 1026.19 1026.02 1026.53 1026.63 1026.77 1026.68 1026.83 1026.93 1028.16 1029.26 1029.61 1029.74 1029.87 1029.65 1030.01 1030.55 1031.16 1032.15 1032.98 1034.58 1036.11 1037.01 1037.39 1037.71 1037.71 1035.39 1034.27 1034.53 1035.36 1036.46 1036.90 1037.81 1038.55 1039.17 1040.12 1039.03
1028.41 1028.43 1028.46 1028.51 1028.53 1028.46 1028.32 1028.06 1027.74 1027.28 1026.73 1026.29 1026.58 1026.78 1026.85 1026.75 1026.74 1026.92 1027.36 1029.68 1030.27 1030.42 1030.51 1030.66 1030.72 1031.11 1031.78 1031.99 1032.68 1033.65 1034.80 1036.17 1037.26 1037.84 1037.95 1038.74 1037.57 1035.14 1035.45 1036.01 1037.09 1037.81 1039.07 1039.50 1040.15 1040.80 1038.78
1028.27 1028.27 1028.37 1028.50 1028.52 1028.43 1028.30 1028.09 1027.78 1027.31 1026.72 1026.40 1026.78 1027.10 1026.79 1026.75 1026.84 1027.31 1029.38 1030.48 1030.78 1031.01 1031.14 1031.44 1031.48 1031.92 1032.61 1033.12 1033.57 1034.46 1035.27 1036.09 1036.88 1038.14 1038.54 1039.09 1039.25 1036.43 1036.22 1036.59 1037.22 1038.77 1039.68 1040.54 1040.85 1040.94 1040.27
1028.17 1028.17 1028.23 1028.36 1028.42 1028.36 1028.24 1028.12 1027.83 1027.37 1026.68 1026.56 1027.33 1027.46 1026.78 1026.81 1027.62 1029.65 1031.16 1031.22 1031.28 1031.42 1031.61 1031.84 1032.03 1032.35 1032.84 1033.43 1034.03 1034.40 1034.83 1035.48 1036.41 1037.33 1038.54 1039.12 1039.36 1038.00 1035.87 1036.65 1037.67 1038.47 1039.25 1039.77 1041.17 1041.54 1041.26
1028.08 1028.10 1028.12 1028.25 1028.31 1028.31 1028.25 1028.15 1027.99 1027.69 1027.40 1027.72 1028.60 1028.36 1026.85 1026.85 1029.17 1031.07 1031.51 1031.50 1031.45 1031.70 1031.84 1032.14 1032.34 1032.75 1033.41 1033.75 1034.28 1034.02 1034.44 1034.90 1035.43 1036.27 1037.10 1037.94 1038.37 1037.37 1035.49 1036.92 1037.37 1038.14 1038.77 1039.28 1039.92 1039.78 1039.13
1027.84 1027.94 1027.99 1028.07 1028.15 1028.20 1028.22 1028.20 1028.15 1028.01 1027.80 1028.08 1029.28 1029.48 1028.63 1029.07 1030.78 1030.88 1031.43 1031.51 1031.52 1031.66 1031.86 1032.14 1032.56 1032.96 1033.47 1033.71 1033.92 1034.07 1034.17 1034.65 1035.33 1036.00 1036.44 1037.25 1037.84 1036.87 1035.77 1034.71 1035.61 1037.45 1037.92 1038.52 1038.44 1038.89 1036.55
1027.54 1027.68 1027.78 1027.89 1028.01 1028.04 1028.10 1028.16 1028.23 1028.22 1028.12 1028.41 1030.06 1031.36 1031.70 1031.77 1031.54 1031.55 1031.62 1031.62 1031.47 1031.62 1031.99 1032.28 1032.65 1032.76 1033.12 1033.75 1033.73 1033.88 1033.80 1034.41 1035.18 1035.56 1036.58 1037.42 1037.50 1036.35 1034.58 1033.57 1034.20 1033.98 1035.14 1036.27 1036.32 1034.69 1033.94
1027.17 1027.31 1027.46 1027.62 1027.80 1027.95 1028.04 1028.19 1028.32 1028.37 1028.39 1028.99 1030.68 1031.40 1032.49 1032.52 1031.80 1031.60 1031.59 1031.25 1031.10 1031.03 1031.58 1032.17 1032.57 1032.17 1033.01 1033.08 1032.39 1032.86 1033.08 1033.88 1034.13 1035.66 1036.68 1037.63 1036.87 1036.14 1033.98 1032.20 1032.75 1032.14 1031.68 1033.02 1033.65 1033.04 1031.48
1026.69 1026.82 1026.95 1027.13 1027.34 1027.49 1027.69 1027.89 1028.14 1028.39 1028.62 1029.73 1031.12 1031.24 1031.59 1032.49 1032.09 1031.98 1031.07 1030.56 1030.66 1030.83 1030.91 1031.19 1031.88 1032.51 1032.91 1032.20 1032.22 1032.17 1032.31 1032.76 1033.50 1034.80 1036.42 1037.61 1037.80 1037.04 1033.72 1031.94 1031.12 1030.01 1027.80 1029.53 1030.08 1029.37 1027.80
1026.27 1026.34 1026.44 1026.58 1026.73 1026.89 1027.13 1027.46 1027.79 1028.13 1028.59 1029.34 1030.20 1030.74 1031.83 1032.10 1032.04 1031.48 1030.80 1030.73 1030.66 1030.80 1031.01 1031.36 1031.89 1032.38 1032.32 1032.16 1032.40 1032.37 1032.60 1032.95 1033.66 1034.69 1035.71 1037.11 1037.45 1037.09 1034.71 1031.39 1028.60 1024.51 1025.14 1025.99 1026.72 1025.53 1024.92
1026.54 1026.46 1026.35 1026.23 1026.29 1026.41 1026.52 1026.74 1027.12 1027.57 1028.21 1028.80 1029.58 1030.02 1030.88 1031.30 1031.00 1030.45 1030.28 1030.51 1030.61 1030.99 1031.38 1031.69 1032.26 1032.68 1032.53 1032.66 1032.84 1032.66 1032.65 1033.13 1033.86 1034.87 1035.70 1036.37 1036.90 1036.72 1035.36 1032.70 1026.28 1022.78 1024.59 1025.40 1026.15 1022.23 1021.11
1026.77 1026.74 1026.39 1026.36 1026.20 1025.82 1025.78 1026.00 1026.34 1026.95 1027.53 1028.33 1028.86 1029.06 1029.75 1030.41 1029.55 1029.16 1029.76 1030.19 1030.74 1031.48 1031.65 1032.17 1032.60 1032.59 1032.67 1033.03 1033.36 1033.64 1033.01 1032.54 1033.70 1035.16 1035.92 1036.22 1036.43 1036.38 1035.06 1032.92 1028.05 1022.80 1023.26 1024.01 1024.52 1022.00 1019.52
1026.82 1026.59 1026.57 1026.43 1026.35 1025.77 1025.24 1025.31 1025.49 1025.89 1026.61 1027.47 1027.80 1027.97 1028.77 1029.76 1028.71 1028.89 1028.93 1029.18 1029.62 1030.55 1031.31 1032.20 1032.74 1033.19 1033.31 1033.50 1033.86 1033.69 1032.74 1031.96 1032.70 1033.46 1035.25 1035.88 1036.20 1035.15 1033.44 1030.88 1025.97 1020.92 1021.77 1023.22 1022.47 1018.60 1018.07
1027.23 1026.91 1026.59 1026.50 1026.50 1025.93 1025.26 1024.84 1024.94 1025.31 1025.78 1026.74 1027.37 1027.58 1027.77 1028.49 1027.97 1027.84 1027.82 1028.17 1029.19 1029.57 1030.23 1032.04 1032.85 1033.42 1033.91 1033.96 1033.69 1033.00 1032.84 1031.79 1032.04 1031.53 1031.85 1032.07 1032.62 1032.36 1030.80 1028.10 1022.85 1018.81 1021.01 1020.03 1015.97 1015.92 1017.17
1027.37 1027.16 1026.90 1026.66 1026.30 1025.89 1025.40 1025.17 1024.62 1024.72 1025.29 1025.94 1027.27 1027.60 1027.70 1028.34 1027.98 1027.68 1026.93 1026.66 1026.76 1027.02 1028.53 1030.75 1031.00 1031.45 1031.33 1032.11 1032.58 1032.54 1032.22 1031.56 1030.98 1030.41 1029.73 1029.42 1026.83 1026.27 1024.68 1020.12 1015.78 1016.62 1014.77 1014.46 1015.42 1016.30 1016.97
Wind_Speed
13 13 13 13 12 12 12 12 12 12 10 11 10 9 7 6 7 9 10 10 11 14 15 14 14 6 3 10 3 7 23 19 8 7 13 5 9 4 6 4 4 6 3 2 2 6 4
13 12 13 13 13 12 12 13 12 12 11 11 11 9 8 7 8 8 9 10 12 12 12 12 15 5 7 11 7 8 11 8 8 7 11 11 5 4 7 5 6 3 2 3 4 5 3
12 12 13 13 13 13 13 13 13 13 12 12 10 9 9 9 9 9 9 10 11 12 10 9 8 4 11 3 4 8 9 4 6 4 5 5 3 6 1 4 4 1 3 4 6 7 5
12 12 13 13 13 13 13 12 13 14 13 13 10 10 10 11 10 10 10 11 11 11 8 7 5 4 5 3 2 7 9 4 8 5 3 5 7 8 7 1 6 7 6 8 1 8 4
11 12 12 13 13 13 13 13 13 13 14 14 12 11 11 11 11 11 12 13 9 10 9 5 5 4 3 4 7 6 6 5 7 4 6 4 8 6 8 5 5 9 2 3 10 4 4
11 12 12 13 13 14 14 14 14 13 12 13 13 12 12 11 12 14 11 5 6 6 7 2 3 4 6 6 6 7 5 4 4 5 4 10 7 6 6 8 2 6 6 5 8 6 1
10 11 12 12 13 14 14 14 15 14 13 13 13 13 12 11 12 12 5 3 5 5 13 6 1 3 5 9 4 12 5 6 5 11 6 6 11 5 3 1 3 4 3 6 7 3 11
10 11 11 12 13 13 14 14 15 15 14 13 13 14 14 11 7 8 5 7 1 3 8 4 2 2 1 2 6 13 8 8 9 6 7 7 4 3 3 4 3 4 3 6 14 2 6
9 10 11 12 12 13 13 14 15 16 16 15 14 15 13 11 2 7 6 4 2 1 6 3 2 3 4 5 3 11 8 4 7 7 8 6 2 4 1 3 9 3 4 2 7 11 1
8 9 10 11 12 13 14 14 15 16 17 15 14 15 13 7 7 1 4 4 3 2 6 10 7 5 4 1 5 3 5 2 7 3 2 4 2 2 2 0 2 4 2 8 8 5 4
7 7 8 10 11 13 14 15 16 16 17 16 15 15 9 11 6 4 1 4 3 2 5 5 6 3 5 8 7 6 3 6 4 2 2 2 6 5 1 2 3 6 6 3 2 4 5
5 6 7 9 10 12 13 14 15 16 16 16 16 13 5 5 4 1 3 3 2 8 4 5 3 8 5 7 7 7 7 9 1 2 4 1 1 1 3 3 3 8 3 2 4 3 3
2 3 5 7 9 11 12 14 15 15 16 16 15 8 6 2 1 2 2 3 7 8 2 7 5 6 1 7 6 10 7 11 6 8 9 6 1 1 3 5 2 9 6 6 9 7 7
2 1 3 6 8 10 12 13 15 17 17 16 9 5 5 2 2 2 3 5 10 1 2 1 2 3 3 6 2 7 3 5 4 4 4 5 8 4 5 4 4 3 5 6 6 5 8
4 3 3 4 7 9 12 14 16 17 17 16 3 2 2 3 2 2 4 8 5 3 2 5 4 2 4 1 1 5 4 3 3 1 3 4 7 2 5 3 4 1 5 2 6 1 3
5 5 4 4 6 7 10 13 15 18 18 9 2 2 2 3 2 3 7 4 3 1 0 1 1 1 3 6 5 6 2 4 2 2 1 3 7 2 3 2 5 5 3 3 4 5 9
7 6 5 5 6 6 8 12 14 18 20 1 3 3 2 2 2 7 5 4 3 1 1 1 2 1 2 3 1 2 3 3 2 3 4 5 3 3 4 6 8 2 2 5 5 4 5
7 7 6 6 6 6 7 10 12 17 19 7 2 3 2 1 6 2 3 1 1 2 0 1 3 3 4 3 2 3 4 5 7 7 4 4 5 7 8 1 2 2 6 5 6 6 1
8 8 7 6 6 6 6 8 10 13 14 2 3 3 2 2 4 2 2 1 2 3 3 3 3 2 3 3 3 3 3 2 8 8 8 8 2 7 5 3 5 3 4 3 5 3 9
9 9 8 8 7 6 5 5 7 9 11 4 3 4 5 7 2 7 3 2 2 1 2 2 2 3 2 3 4 3 4 4 6 4 6 7 2 7 10 7 5 4 6 5 6 5 5
11 10 10 10 9 8 6 4 4 7 9 4 5 1 3 3 4 3 2 2 3 3 2 3 2 7 7 2 3 5 4 2 4 7 4 4 6 6 12 18 7 20 11 11 15 10 11
12 12 12 11 10 9 8 6 4 4 6 5 3 4 4 1 0 3 2 6 7 3 7 4 5 3 7 6 9 7 6 5 7 3 7 2 6 4 7 14 6 13 10 17 20 18 17
13 13 13 13 13 12 11 9 7 3 6 3 0 3 5 1 2 4 5 5 6 5 3 2 6 4 5 11 4 3 4 1 3 10 8 5 1 5 9 5 13 10 11 16 7 8 9
5 11 13 14 14 13 13 12 11 9 6 3 3 4 5 5 2 5 1 3 6 6 4 2 5 5 1 3 2 2 3 2 4 3 2 5 3 2 9 10 4 7 2 4 12 10 23
10 12 15 7 13 15 15 15 14 14 13 3 4 3 4 4 3 4 6 6 1 1 3 2 2 1 1 3 3 6 3 1 1 4 2 2 3 3 3 3 17 6 3 6 6 13 19
12 11 11 14 17 11 16 17 17 17 18 4 3 3 4 4 7 2 3 4 5 4 3 2 1 0 2 2 3 3 4 4 2 2 6 4 2 2 1 5 7 7 4 4 4 11 7
11 10 11 12 9 15 7 16 18 21 23 5 3 5 4 3 5 7 5 6 6 3 2 1 2 2 3 2 2 5 6 3 5 7 7 3 1 7 7 8 14 16 9 7 3 12 6
11 11 11 11 11 11 15 7 15 19 23 8 1 5 5 3 4 10 8 7 3 1 4 5 3 1 3 1 3 4 4 5 1 6 9 10 10 8 4 5 16 11 8 11 8 2 3
9 11 11 11 13 12 12 14 8 17 23 13 2 1 2 2 4 2 5 2 6 8 7 5 1 4 6 3 2 1 4 2 5 12 0 5 11 7 17 16 6 15 17 7 1 4 4
Wind_Direction
71 65 59 54 50 47 44 37 34 34 35 22 14 6 4 5 2 360 358 7 7 358 353 355 6 4 46 44 22 302 333 333 351 357 38 35 48 47 72 81 69 55 352 53 333 35 29
72 66 60 54 49 47 43 38 34 33 27 23 23 26 26 16 2 355 356 352 351 353 351 354 2 32 61 63 257 323 330 336 6 23 20 26 60 60 91 66 62 295 298 326 55 10 29
70 64 59 53 49 45 42 37 32 28 23 18 22 22 13 0 0 357 352 348 348 346 343 355 19 74 65 104 343 327 347 337 352 11 39 21 36 80 69 85 326 55 21 22 25 339 9
70 64 58 52 48 44 40 34 31 30 27 24 26 18 13 3 360 350 340 334 329 336 340 354 44 70 90 294 303 359 345 343 358 18 57 36 77 94 56 233 27 35 51 355 58 5 5
71 64 56 49 44 40 37 32 26 22 24 23 17 9 2 0 355 342 327 323 324 330 355 12 32 74 41 335 19 331 33 336 307 356 28 55 62 71 22 34 30 14 282 339 312 79 315
71 64 56 48 42 37 33 29 24 19 17 17 16 6 358 353 346 337 320 310 351 34 357 40 80 41 26 320 305 333 328 350 11 323 29 35 49 68 32 23 11 312 328 281 252 309 185
70 62 54 46 40 35 30 26 24 21 16 11 7 3 357 349 347 350 15 19 19 353 38 80 308 119 315 304 300 355 352 344 13 54 29 11 58 30 310 305 136 228 215 255 258 282 336
67 59 52 44 39 34 28 25 23 19 14 9 1 356 351 345 350 17 61 73 117 157 81 29 61 44 281 337 356 346 7 53 38 36 335 28 61 293 247 144 315 192 202 265 292 252 330
64 54 47 41 36 30 26 23 20 17 12 7 1 357 351 343 58 38 71 82 339 270 82 19 54 33 325 21 64 333 22 35 51 44 17 99 202 303 17 37 354 216 202 302 241 321 246
62 52 44 37 31 25 21 19 17 15 11 5 359 357 358 344 48 317 43 325 340 318 75 337 353 4 342 9 50 338 17 46 35 84 45 89 319 356 28 343 219 298 99 325 292 34 290
59 47 37 32 25 21 17 14 13 10 8 6 358 358 20 41 143 61 254 316 321 54 53 327 333 295 353 62 308 6 2 25 76 33 74 306 358 359 319 248 181 252 349 286 85 80 31
59 38 27 23 18 16 13 10 7 5 3 360 351 350 13 23 51 351 311 336 42 45 299 348 333 346 9 24 6 305 21 36 9 102 44 99 261 39 279 289 222 309 15 90 67 98 16
79 33 14 10 8 6 5 4 0 358 355 353 348 360 43 37 82 323 357 43 38 91 346 328 332 6 53 343 4 22 33 8 45 18 16 331 248 7 5 337 49 19 26 340 354 4 239
187 344 351 356 357 357 357 355 352 351 348 345 1 41 22 59 347 25 53 57 67 59 5 336 310 295 40 0 38 8 52 41 58 46 68 34 326 28 357 105 195 13 111 139 272 293 289
213 242 303 335 345 348 350 350 349 348 344 342 54 10 42 335 351 59 77 51 191 202 249 338 306 23 340 37 59 29 57 176 229 133 97 30 281 108 44 115 113 290 51 189 93 96 15
229 246 272 300 323 339 345 348 348 346 346 355 69 51 330 321 46 71 71 163 197 243 262 233 77 93 306 320 6 50 10 218 188 206 146 199 311 60 140 107 65 114 140 34 17 331 300
229 246 273 292 305 325 343 349 349 348 346 30 49 43 262 344 79 48 100 200 180 181 216 35 198 261 223 298 310 291 260 233 181 126 79 130 100 288 58 189 182 80 13 44 115 123 197
237 243 257 274 288 311 332 347 352 355 352 49 64 16 312 90 49 40 81 23 96 178 83 173 91 134 173 161 266 258 241 200 154 152 134 199 148 268 235 355 167 129 192 154 129 249 151
242 247 252 265 284 298 322 342 352 1 21 55 68 276 329 60 89 23 252 202 216 167 218 187 200 211 188 209 345 217 229 146 165 167 175 184 227 309 308 1 357 216 207 127 108 80 201
240 247 250 254 264 276 297 324 349 357 8 76 69 14 338 48 21 121 143 198 231 211 225 195 140 106 143 229 214 277 249 200 200 201 164 152 202 200 225 244 126 243 188 206 143 157 181
239 243 247 250 252 256 264 278 331 353 2 82 28 218 173 307 355 79 95 168 176 233 234 176 239 221 174 197 221 233 229 205 193 221 105 136 241 205 271 273 249 263 228 182 204 201 199
238 240 244 244 245 248 250 254 272 348 13 73 109 120 349 172 237 143 189 226 203 202 149 228 215 189 177 200 203 222 183 199 211 139 157 161 267 15 269 268 228 260 240 213 221 240 255
240 240 240 239 235 230 228 225 217 180 77 89 298 20 97 294 81 96 227 202 221 151 199 163 189 119 203 243 252 290 222 237 202 158 179 160 294 6 275 322 298 278 227 187 187 209 196
305 255 246 245 238 229 222 215 204 181 146 127 185 111 87 270 149 210 284 193 217 218 230 136 148 151 233 99 98 59 57 73 160 175 114 142 134 157 281 320 332 253 175 178 191 233 209
40 38 34 320 254 238 224 214 201 186 171 131 160 135 136 257 181 256 222 217 298 292 256 215 204 85 62 41 2 327 282 302 137 50 165 124 121 286 304 249 285 286 182 156 174 279 230
37 24 30 30 18 269 227 219 204 191 175 125 181 143 129 126 240 77 139 161 200 210 350 115 71 267 91 100 81 228 252 247 233 128 6 112 82 134 147 250 269 253 177 142 133 280 196
33 20 15 14 359 19 301 229 213 192 179 148 205 175 110 152 231 150 195 188 140 143 140 229 183 91 21 117 196 205 252 162 238 185 170 137 187 220 228 258 277 254 174 159 70 290 188
20 19 19 7 356 3 18 327 226 204 182 154 206 190 145 178 252 189 182 158 118 173 169 150 102 28 64 125 169 237 198 237 24 165 179 167 166 206 199 225 274 135 114 183 233 235 170
7 8 7 6 6 1 1 9 327 209 189 171 160 147 112 131 259 302 260 264 196 180 140 181 204 158 192 111 237 62 252 171 171 275 154 264 200 196 197 212 236 193 251 256 128 249 221